User: anonymous   Login
Location: Équennes
(49.7375°N, 1.9622°E)
Time: 16:21:10
(UTC+00:00)
Language:

Cosmos 2278 - Orbit

View from above orbital plane
View from above orbital plane
View from above satellite
View from above satellite

Ground track
Ground track

The orbit data is extracted from the following two-line orbital elements,

1 23087U 94023A   24110.61524646 -.00000022  00000-0  13177-4 0  9998
2 23087  71.0540 176.4750 0009366 344.4221  15.6611 14.14074326547630
Epoch (UTC): 19 April 2024 14:45:57
Eccentricity: 0.0009366
inclination: 71.0540°
perigee height: 839 km
apogee height: 852 km
right ascension of ascending node: 176.4750°
argument of perigee: 344.4221°
revolutions per day: 14.14074326
mean anomaly at epoch: 15.6611°
orbit number at epoch: 54763

The dashed part of the orbit path shows where the satellite is in the earth's shadow,  

DLR